sat.trackr.live / text

‹ back to catalog

STARLINK-34787

NORAD 65204 · 2025-176G

PAYLOAD ACTIVE UNKNOWN

§ Identity

Operator
Country
US
Launch date
2025-08-14
Launch site
AFETR
Launch vehicle
Mass (kg)
RCS (m²)

Purposes: comms

External: N2YO · Heavens-Above · Gunter

§ Orbital elements

Epoch: 2026-09-20T11:03:22.207680Z

Period
93.84 min
Inclination
53.1608°
Eccentricity
0.0001268
Mean motion
15.34468686 rev/d
Perigee alt
461.6 km
Apogee alt
463.4 km
Semi-major
6,840.6 km
B*
1.3099e-3
RAAN
323.5796°
Arg perigee
105.7041°
Mean anomaly
254.4102°
Rev number
6,300

§ Raw data

STARLINK-347871 65204U 25176G   26263.46067370  .00044238  00000+0  13099-2 0  99942 65204  53.1608 323.5796 0001268 105.7041 254.4102 15.34468686 63000

JSON: /api/v1/satellites/65204 · /tle

For live sub-satellite position, see the globe view (requires WebGL).

§ Visibility from observer

Set your observer location to see the next 7 days of passes ≥ 10°. The values pass through the URL so the page stays shareable.

No JS? Fill the form by hand. The geolocation button needs JavaScript.